Rose Hill, VA

11:20 PM EDT on August 25, 2016 (GMT -0400)
Jonesville

Weather History for K0VG - October, 2012

Change the Weather History Date:

Sunday, October 7, 2012

  Actual Average (KLOZ) Record (KLOZ)
Temperature  
Mean Temperature 47 °F 60 °F  
Max Temperature 55 °F 72 °F 92 °F (2007)
Min Temperature 39 °F 48 °F 29 °F (1964)
Degree Days  
Heating Degree Days 18 6  
Month to date heating degree days 36  
Since 1 July heating degree days 83  
Cooling Degree Days 0 1  
Month to date cooling degree days 9  
Year to date cooling degree days 1176  
Moisture  
Dew Point 43 °F    
Average Humidity 85    
Maximum Humidity 100    
Minimum Humidity 51    
Precipitation  
Precipitation 0.04 in 0.09 in 1.31 in (2014)
Month to date precipitation 0.67  
Year to date precipitation 36.72  
Sea Level Pressure  
Sea Level Pressure 30.13 in    
Wind  
Wind Speed 1 mph (West)    
Max Wind Speed 7 mph    
Max Gust Speed -    
Visibility 10 miles    
Events Rain    
T = Trace of Precipitation, MM = Missing Value Source: NWS Daily Summary

Daily Weather History Graph

Daily Weather History Graph

Search for Another Location

Airport or City:

Trip Planner

Search our weather history database for the weather conditions in past years. The results will help you decide how hot, cold, wet, or windy it might be!

Date:

Astronomy

Oct. 07, 2012 Rise Set
Actual Time 7:33 AM EDT 7:06 PM EDT
Civil Twilight 7:07 AM EDT 7:32 PM EDT
Nautical Twilight 6:37 AM EDT 8:02 PM EDT
Astronomical Twilight 6:07 AM EDT 8:32 PM EDT
Moon No Moon Rise 2:03 PM EDT (10/7)
Length of Visible Light 12h 24m
Length of Day
11h 33m
Waning Gibbous, 56% of the Moon is Illuminated
Oct 7
Waning Gibbous
Oct 8
Last Quarter
Oct 15
New
Oct 21
First Quarter
Oct 29
Full

Hourly Weather History & Observations

Time (EDT) Temp. Windchill Dew Point Humidity Pressure Visibility Wind Dir Wind Speed Gust Speed Precip Events Conditions
12:15 AM 51.8 °F - 46.4 °F 82% 30.11 in 10.0 mi Calm Calm - N/A   Unknown
12:55 AM 50.0 °F - 48.2 °F 94% 30.10 in 10.0 mi Calm Calm - N/A   Unknown
1:15 AM 50.0 °F - 46.4 °F 87% 30.09 in 10.0 mi Calm Calm - N/A   Unknown
1:35 AM 51.8 °F - 48.2 °F 88% 30.09 in 10.0 mi Calm Calm - N/A   Unknown
1:55 AM 50.0 °F - 48.2 °F 94% 30.08 in 10.0 mi Calm Calm - N/A Rain Light Rain
2:15 AM 50.0 °F - 46.4 °F 87% 30.09 in 10.0 mi Calm Calm - N/A Rain Light Rain
2:35 AM 50.0 °F - 46.4 °F 87% 30.09 in 10.0 mi Calm Calm - N/A Rain Light Rain
2:55 AM 48.2 °F - 46.4 °F 93% 30.10 in 10.0 mi Calm Calm - 0.01 in Rain Light Rain
3:15 AM 48.2 °F - 46.4 °F 93% 30.08 in 10.0 mi Calm Calm - N/A Rain Light Rain
3:35 AM 48.2 °F - 44.6 °F 87% 30.08 in 10.0 mi Calm Calm - N/A Rain Light Rain
3:55 AM 48.2 °F - 46.4 °F 93% 30.10 in 10.0 mi West 3.5 mph - N/A   Unknown
4:15 AM 48.2 °F - 44.6 °F 87% 30.09 in 10.0 mi Calm Calm - N/A Rain Light Rain
4:35 AM 48.2 °F - 44.6 °F 87% 30.08 in 5.0 mi Calm Calm - 0.01 in Rain Light Rain
4:55 AM 46.4 °F - 46.4 °F 100% 30.04 in 7.0 mi Calm Calm - 0.03 in Rain Light Rain
5:15 AM 46.4 °F 45.2 °F 46.4 °F 100% 30.07 in 10.0 mi NW 3.5 mph - N/A   Unknown
5:35 AM 46.4 °F - 44.6 °F 93% 30.09 in 10.0 mi Calm Calm - N/A   Unknown
5:55 AM 46.4 °F - 44.6 °F 93% 30.08 in 10.0 mi Calm Calm - N/A   Unknown
6:15 AM 48.2 °F - 44.6 °F 87% 30.08 in 10.0 mi Calm Calm - N/A   Unknown
6:35 AM 46.4 °F - 46.4 °F 100% 30.07 in 10.0 mi Calm Calm - N/A   Unknown
6:55 AM 46.4 °F - 46.4 °F 100% 30.08 in 10.0 mi Calm Calm - N/A   Unknown
7:15 AM 46.4 °F - 46.4 °F 100% 30.08 in 10.0 mi Calm Calm - N/A   Unknown
7:35 AM 46.4 °F - 46.4 °F 100% 30.07 in 10.0 mi Calm Calm - N/A Rain Light Rain
7:55 AM 46.4 °F - 46.4 °F 100% 30.08 in 10.0 mi Calm Calm - N/A Rain Light Rain
8:15 AM 46.4 °F - 46.4 °F 100% 30.09 in 10.0 mi Calm Calm - N/A   Overcast
8:35 AM 48.2 °F - 46.4 °F 93% 30.10 in 10.0 mi SSW 3.5 mph - N/A   Overcast
8:55 AM 48.2 °F - 46.4 °F 93% 30.11 in 10.0 mi Calm Calm - N/A   Overcast
9:35 AM 48.2 °F - 46.4 °F 93% 30.12 in 10.0 mi SSW 3.5 mph - N/A   Overcast
9:55 AM 48.2 °F - 46.4 °F 93% 30.12 in 10.0 mi SSW 3.5 mph - N/A   Overcast
10:15 AM 48.2 °F - 46.4 °F 93% 30.13 in 10.0 mi SW 3.5 mph - N/A   Overcast
10:35 AM 48.2 °F - 46.4 °F 93% 30.12 in 10.0 mi South 3.5 mph - N/A   Overcast
10:55 AM 48.2 °F - 46.4 °F 93% 30.12 in 10.0 mi SW 3.5 mph - N/A   Overcast
11:15 AM 48.2 °F - 46.4 °F 93% 30.13 in 10.0 mi SW 4.6 mph - N/A   Overcast
11:35 AM 50.0 °F - 44.6 °F 82% 30.14 in 10.0 mi West 4.6 mph - N/A   Overcast
11:55 AM 50.0 °F - 44.6 °F 82% 30.14 in 10.0 mi WNW 3.5 mph - N/A   Overcast
12:15 PM 50.0 °F - 44.6 °F 82% 30.14 in 10.0 mi WNW 3.5 mph - N/A   Overcast
12:55 PM 50.0 °F - 44.6 °F 82% 30.16 in 10.0 mi WNW 6.9 mph - N/A   Overcast
1:15 PM 50.0 °F - 42.8 °F 76% 30.17 in 10.0 mi WNW 4.6 mph - N/A   Overcast
1:35 PM 50.0 °F - 41.0 °F 71% 30.18 in 10.0 mi WNW 4.6 mph - N/A   Overcast
1:55 PM 50.0 °F - 41.0 °F 71% 30.18 in 10.0 mi NW 6.9 mph - N/A   Overcast
2:15 PM 50.0 °F - 39.2 °F 66% 30.17 in 10.0 mi Calm Calm - N/A   Mostly Cloudy
2:35 PM 50.0 °F - 39.2 °F 66% 30.16 in 10.0 mi Calm Calm - N/A   Mostly Cloudy
3:35 PM 50.0 °F - 37.4 °F 62% 30.17 in 10.0 mi Calm Calm - N/A   Mostly Cloudy
3:55 PM 53.6 °F - 37.4 °F 54% 30.17 in 10.0 mi North 3.5 mph - N/A   Partly Cloudy
4:15 PM 53.6 °F - 37.4 °F 54% 30.16 in 10.0 mi Calm Calm - N/A   Clear
4:35 PM 51.8 °F - 35.6 °F 54% 30.16 in 10.0 mi Calm Calm - N/A   Partly Cloudy
4:55 PM 53.6 °F - 37.4 °F 54% 30.16 in 10.0 mi North 4.6 mph - N/A   Partly Cloudy
5:15 PM 53.6 °F - 37.4 °F 54% 30.15 in 10.0 mi Calm Calm - N/A   Clear
5:35 PM 55.4 °F - 37.4 °F 51% 30.15 in 10.0 mi NNW 3.5 mph - N/A   Clear
5:55 PM 53.6 °F - 37.4 °F 54% 30.15 in 10.0 mi Calm Calm - N/A   Clear
6:15 PM 51.8 °F - 37.4 °F 58% 30.15 in 10.0 mi Calm Calm - N/A   Clear
6:35 PM 51.8 °F - 39.2 °F 62% 30.15 in 10.0 mi Calm Calm - N/A   Clear
6:55 PM 50.0 °F - 41.0 °F 71% 30.16 in 10.0 mi Calm Calm - N/A   Clear
7:15 PM 48.2 °F - 41.0 °F 76% 30.16 in 10.0 mi Calm Calm - N/A   Unknown
7:35 PM 46.4 °F - 41.0 °F 81% 30.16 in 10.0 mi Calm Calm - N/A   Unknown
7:55 PM 44.6 °F - 41.0 °F 87% 30.16 in 10.0 mi Calm Calm - N/A   Unknown
8:15 PM 44.6 °F - 42.8 °F 93% 30.18 in 10.0 mi Calm Calm - N/A   Unknown
8:35 PM 42.8 °F - 41.0 °F 93% 30.17 in 10.0 mi Calm Calm - N/A   Unknown
8:55 PM 42.8 °F - 41.0 °F 93% 30.18 in 10.0 mi Calm Calm - N/A   Unknown
9:15 PM 41.0 °F - 39.2 °F 93% 30.18 in 10.0 mi Calm Calm - N/A   Unknown
9:35 PM 41.0 °F - 39.2 °F 93% 30.19 in 10.0 mi Calm Calm - N/A   Unknown
9:55 PM 41.0 °F - 39.2 °F 93% 30.20 in 10.0 mi Calm Calm - N/A   Unknown
10:15 PM 41.0 °F - 39.2 °F 93% 30.20 in 10.0 mi Calm Calm - N/A   Unknown
10:35 PM 39.2 °F - 39.2 °F 100% 30.20 in 10.0 mi Calm Calm - N/A   Unknown
10:55 PM 39.2 °F - 39.2 °F 100% 30.20 in 10.0 mi Calm Calm - N/A   Unknown
11:15 PM 39.2 °F - 39.2 °F 100% 30.20 in 10.0 mi Calm Calm - N/A   Unknown
11:35 PM 39.2 °F - 39.2 °F 100% 30.19 in 10.0 mi Calm Calm - N/A   Unknown
11:55 PM 39.2 °F - 39.2 °F 100% 30.19 in 10.0 mi Calm Calm - N/A   Unknown